Portada
METAR-TAF:

METAR-TAF

Aeropuertos :

Mount Pleasant Regional Airport

Mount Pleasant, Texas, Estados Unidos

latitud: 33-05-43N, longitud: 094-57-41W, altitud: 111 m

Observación

El informe se hizo hace 13 minutos, a las 19:35 UTC
Viento 6 kt del suroeste
Temperatura 10°C
Humedad 62%
Presión 1016 hPa
Visibilidad: 16.1 km
Cielo despejado

METAR: KOSA 201935Z AUTO 22006KT 10SM CLR 10/03 A2999 RMK AO1 T00960028

Hora: 13:48 (19:48 UTC)


TAF: falta

Observaciones y pronósticos meteorológicos de más de 4000 aeropuertos (mensajes METAR y TAF).

Los puntos amarillos y rojos representan las estaciones disponibles.

Ponga el ratón en el punto deseado para ver el nombre de la estación.

Haga clic para ver las observaciones y los pronósticos meteorológicos.

Para cambiar el mapa : haga clic en los botones verdes con una cruz de color negro para hacer un zoom, en el botón verde con un guión para alejar o en las flechas verdes para mapas adyacentes.


METAR-TAF: